This demonstration page uses our WeatherBlox Daily Observations layout. Learn more.

Left ArrowRight Arrow

39.92423, -83.80882

Hourly Observations for January 4, 2021

Temp ( °F °C ) Dew Point ( °F °C ) Humidity (%) Winds ( mph kmh ) Pressure ( in mb ) Visibility ( mi km ) Precip ( " mm )
12:56 am 00:56 Cloudy 32 0 32 0 100 100 WNW 5 7 30.05 1018 10 16.0934 0.01 0.254
1:56 am 01:56 Cloudy 32 0 32 0 100 100 WSW 5 7 30.06 1018 10 16.0934 0 0
2:56 am 02:56 Cloudy 33 0.6 32 0 96 96 Calm 30.08 1019 10 16.0934 0 0
3:56 am 03:56 Cloudy 33 0.6 32 0 96 96 WNW 5 7 30.08 1019 10 16.0934 0 0
4:56 am 04:56 Cloudy 32 0 32 0 100 100 W 6 9 30.08 1019 10 16.0934 0 0
5:56 am 05:56 Cloudy 32 0 31 -0.6 96 96 W 3 6 30.09 1019 10 16.0934 0 0
6:56 am 06:56 Cloudy 32 0 31 -0.6 96 96 WSW 5 7 30.1 1019 10 16.0934 0.01 0.254
7:56 am 07:56 Cloudy 32 0 30 -1.1 92 92 W 3 6 30.09 1019 10 16.0934 0 0
8:56 am 08:56 Cloudy 32 0 30 -1.1 92 92 WSW 3 6 30.1 1019 10 16.0934 0 0
9:56 am 09:56 Cloudy 33 0.6 30 -1.1 89 89 SW 5 7 30.1 1019 10 16.0934 0 0
10:12 am 10:12 Cloudy 34 1 30 -1 87 87 SW 5 7 30.11 1020 10 16.0934 0 0
10:56 am 10:56 Cloudy 33 0.6 30 -1.1 89 89 VRB 5 7 30.09 1019 10 16.0934 0 0
11:11 am 11:11 Cloudy 34 1 28 -2 81 81 W 3 6 30.09 1019 10 16.0934 0 0
11:56 am 11:56 Cloudy 34 1.1 29 -1.7 82 82 WSW 3 6 30.06 1018 10 16.0934 0 0
12:56 pm 12:56 Cloudy 35 1.7 31 -0.6 85 85 WSW 7 11 30.02 1017 10 16.0934 0 0
1:56 pm 13:56 Cloudy 35 1.7 30 -1.1 82 82 WSW 7 11 30.01 1016 10 16.0934 0.01 0.254
2:56 pm 14:56 Cloudy 36 2.2 30 -1.1 79 79 SW 7 11 30 1016 10 16.0934 0 0
3:56 pm 15:56 Partly Cloudy 37 2.8 30 -1.1 76 76 S 3 6 30.01 1016 10 16.0934 0 0
4:54 pm 16:54 Mostly Cloudy 37 3 30 -1 75 75 WSW 8 13 30.01 1016 10 16.0934 0 0
4:56 pm 16:56 Mostly Cloudy 36 2.2 30 -1.1 79 79 WSW 8 13 30 1016 10 16.0934 0 0
5:56 pm 17:56 Mostly Cloudy 33 0.6 31 -0.6 92 92 SSW 3 6 30.01 1016 10 16.0934 0 0
6:13 pm 18:13 Partly Cloudy 34 1 30 -1 87 87 Calm 30.02 1017 10 16.0934 0 0
6:56 pm 18:56 Clear 31 -0.6 30 -1.1 96 96 Calm 30.01 1016 10 16.0934 0 0
7:56 pm 19:56 Clear 27 -2.8 27 -2.8 100 100 Calm 29.99 1016 9 14.48406 0 0
8:56 pm 20:56 Clear with Mist and Fog 25 -3.9 25 -3.9 100 100 ESE 5 7 29.98 1015 6 9.65604 0 0
9:56 pm 21:56 Clear with Mist and Fog 26 -3.3 26 -3.3 100 100 Calm 29.97 1015 6 9.65604 0 0
10:56 pm 22:56 Clear with Mist and Fog 25 -3.9 25 -3.9 100 100 Calm 29.96 1015 5 8.0467 0.01 0.254
11:56 pm 23:56 Clear with Mist and Fog 25 -3.9 25 -3.9 100 100 SE 5 7 29.94 1014 5 8.0467 0 0

Powered by AerisWeather